OSCAR 3

operational
NORAD ID: 1293 Int'l Des: 1965-016 Owner: OSCAR Country: US
LEOCIRCULAR

OSCAR 3について

説明を読み込み中...

リアルタイム位置

3D地球を読み込み中...

次回通過

高度履歴

Altitude vs Time

uPlot chart will show altitude changes over time

軌道要素

1 01293U 65016F 26062.62732455 .00000272 00000-0 19033-3 0 9993
2 01293 70.0718 268.8058 0019743 285.9195 73.9742 14.08389962117225
Epoch: Mar 3, 2026 • Age: 38 hours

現在のステータス

高度 877.6 km
速度 7.41 km/s
衛星直下点 27.40°N, 64.67°E
タイプ other

大規模コンステレーション

Loading constellations...